Weather observations for the past three days for
Marshalltown, Marshalltown Municipal Airport
| Date | Time (cdt) | Wind (kph) | Vis. (km) | Weather | Sky Cond. | Temperature (ºC) | Relative Humidity | Wind Chill (°C) | Heat Index (°C) | Pressure | Precipitation (cm) | ||||||
|---|---|---|---|---|---|---|---|---|---|---|---|---|---|---|---|---|---|
| Air | Dwpt | 6 hour | altimeter (cm) | sea level (mb) | 1 hr | 3 hr | 6 hr | ||||||||||
| Max. | Min. | ||||||||||||||||
| 05 | 22:53 | E 9 | 16.09 | Fair | CLR | 22.8 | 21.7 | 94% | 76.25 | 1015.7 | |||||||
| 05 | 21:53 | E 11 | 16.09 | Fair | CLR | 23.3 | 22.2 | 94% | 76.23 | 1015.3 | |||||||
| 05 | 20:53 | E 15 | 16.09 | Fair | CLR | 25 | 23.3 | 90% | 26 | 76.17 | 1014.7 | ||||||
| 05 | 19:53 | NE 11 | 16.09 | Fair | CLR | 25.6 | 24.4 | 93% | 27 | 76.12 | 1014.1 | ||||||
| 05 | 18:53 | E 9 | 16.09 | Fair | CLR | 28.9 | 23.9 | 32.2 | 28.9 | 74% | 33 | 76.1 | 1013.9 | ||||
| 05 | 17:53 | E 13 | 16.09 | Fair | CLR | 30.6 | 23.9 | 67% | 36 | 76.1 | 1013.5 | ||||||
| 05 | 16:53 | E 13 G 28 | 16.09 | Fair | CLR | 31.1 | 23.9 | 66% | 37 | 76.07 | 1013.3 | ||||||
| 05 | 15:53 | E 19 | 16.09 | Partly Cloudy | SCT029 SCT036 | 31.1 | 24.4 | 68% | 37 | 76.05 | 1013.1 | ||||||
| 05 | 12:53 | NE 15 | 16.09 | Mostly Cloudy | BKN036 BKN048 | 28.9 | 24.4 | 28.9 | 21.7 | 77% | 34 | 76.23 | 1015.4 | ||||
| 05 | 11:53 | NE 13 | 16.09 | Partly Cloudy | SCT040 | 28.3 | 23.9 | 77% | 32 | 76.23 | 1015.2 | ||||||
| 05 | 10:53 | NE 11 | 16.09 | Fair | CLR | 28.9 | 24.4 | 77% | 34 | 76.23 | 1015.2 | ||||||
| 05 | 09:53 | N 6 | 16.09 | Fair | CLR | 27.8 | 24.4 | 82% | 32 | 76.17 | 1014.5 | ||||||
| 05 | 08:53 | NE 13 | 16.09 | Fair | CLR | 24.4 | 23.3 | 94% | 24 | 76.12 | 1014.2 | ||||||
| 05 | 07:53 | E 6 | 12.87 | Fair | CLR | 22.8 | 22.2 | 96% | 76.07 | 1013.4 | |||||||
| 05 | 06:53 | Calm | 9.66 | Fog/Mist | CLR | 21.7 | 21.1 | 24.4 | 21.7 | 96% | 76.02 | 1012.7 | |||||
| 05 | 05:53 | Calm | 12.87 | Fair | CLR | 21.7 | 21.1 | 96% | 76.02 | 1012.6 | |||||||
| 05 | 04:53 | SE 9 | 12.87 | Fair | CLR | 22.2 | 22.2 | 100% | 76 | 1012.2 | |||||||
| 05 | 03:53 | E 6 | 16.09 | Fair | CLR | 23.3 | 22.2 | 94% | 76 | 1012.4 | |||||||
| 05 | 02:53 | E 6 | 16.09 | A Few Clouds | FEW048 | 23.3 | 22.8 | 97% | 76.02 | 1012.7 | |||||||
| 05 | 01:53 | E 7 | 16.09 | Mostly Cloudy | BKN048 | 24.4 | 23.3 | 94% | 24 | 76.05 | 1012.7 | ||||||
| 05 | 00:53 | E 6 | 16.09 | Fair | CLR | 23.9 | 23.3 | 31.7 | 23.3 | 96% | 23 | 76.02 | 1012.6 | ||||
| 04 | 23:53 | Calm | 16.09 | Fair | CLR | 25 | 23.9 | 94% | 26 | 76 | 1012.1 | ||||||
| 04 | 22:53 | NE 7 | 16.09 | Fair | CLR | 25 | 23.9 | 94% | 26 | 76 | 1012.2 | ||||||
| 04 | 21:53 | NE 6 | 16.09 | Fair | CLR | 26.1 | 24.4 | 90% | 28 | 75.97 | 1012.1 | ||||||
| 04 | 20:53 | E 6 | 16.09 | A Few Clouds | FEW055 | 26.7 | 25 | 90% | 30 | 75.97 | 1011.9 | ||||||
| 04 | 19:53 | E 9 | 16.09 | Overcast | OVC055 | 28.9 | 25.6 | 82% | 35 | 75.95 | 1011.7 | ||||||
| 04 | 18:53 | Calm | 16.09 | Fair | CLR | 31.7 | 24.4 | 33.9 | 31.1 | 65% | 38 | 75.95 | 1011.5 | ||||
| 04 | 17:53 | SW 7 | 16.09 | Fair | CLR | 32.8 | 23.9 | 59% | 39 | 75.92 | 1011.1 | ||||||
| 04 | 16:53 | SW 11 | 16.09 | Fair | CLR | 32.8 | 23.9 | 59% | 39 | 75.9 | 1010.7 | ||||||
| 04 | 15:53 | SW 15 | 16.09 | A Few Clouds | FEW120 | 33.3 | 23.9 | 58% | 39 | 75.92 | 1011.1 | ||||||
| 04 | 14:53 | SW 17 | 16.09 | Fair | CLR | 31.1 | 22.8 | 61% | 35 | 75.92 | 1011.1 | ||||||
| 04 | 13:53 | S 15 G 31 | 16.09 | Fair | CLR | 32.8 | 23.3 | 57% | 38 | 75.9 | 1010.8 | ||||||
| 04 | 12:53 | S 13 | 16.09 | Fair | CLR | 31.7 | 22.8 | 31.7 | 23.9 | 59% | 36 | 75.95 | 1011.7 | ||||
| 04 | 11:53 | S 17 | 16.09 | Fair | CLR | 31.1 | 22.8 | 61% | 35 | 75.97 | 1012.0 | ||||||
| 04 | 10:53 | S 13 | 16.09 | Fair | CLR | 27.8 | 22.2 | 72% | 30 | 75.97 | 1011.9 | ||||||
| 04 | 09:53 | S 9 | 16.09 | Fair | CLR | 26.7 | 21.7 | 74% | 29 | 75.97 | 1011.9 | ||||||
| 04 | 08:53 | S 13 | 16.09 | Partly Cloudy | SCT100 | 26.7 | 21.1 | 71% | 28 | 75.97 | 1011.7 | ||||||
| 04 | 07:53 | S 9 | 16.09 | Fair | CLR | 24.4 | 21.1 | 82% | 25 | 75.95 | 1011.6 | ||||||
| 04 | 06:53 | S 11 | 16.09 | A Few Clouds | FEW100 | 24.4 | 20 | 26.1 | 23.9 | 77% | 25 | 75.92 | 1011.3 | ||||
| 04 | 05:53 | S 9 | 16.09 | Partly Cloudy | SCT100 | 24.4 | 20.6 | 79% | 25 | 75.9 | 1010.9 | ||||||
| 04 | 04:53 | SW 11 | 16.09 | NULL | NULL | 24.4 | 20.6 | 79% | 25 | 75.87 | 1010.5 | ||||||
| 04 | 03:53 | SW 9 | 16.09 | NULL | NULL | 25 | 20.6 | 77% | 26 | 75.84 | 1010.2 | ||||||
| 04 | 02:53 | SW 9 | 16.09 | Fair | CLR | 25 | 20.6 | 77% | 26 | 75.84 | 1010.3 | ||||||
| 04 | 01:53 | S 11 | 16.09 | Fair | CLR | 26.1 | 20.6 | 72% | 28 | 75.87 | 1010.5 | ||||||
| 04 | 00:53 | S 9 | 16.09 | Fair | CLR | 25 | 21.1 | 30.6 | 25 | 79% | 26 | 75.87 | 1010.6 | ||||
| 03 | 23:53 | S 11 | 16.09 | Fair | CLR | 27.2 | 21.1 | 69% | 29 | 75.87 | 1010.5 | ||||||
| 03 | 22:53 | S 13 | 16.09 | Fair | CLR | 27.2 | 21.7 | 72% | 29 | 75.87 | 1010.6 | ||||||
| 03 | 21:53 | S 13 | 16.09 | Fair | CLR | 27.8 | 21.7 | 69% | 30 | 75.84 | 1010.2 | ||||||
| 03 | 20:53 | S 15 | 16.09 | Fair | CLR | 28.3 | 22.2 | 70% | 31 | 75.82 | 1009.7 | ||||||
| 03 | 19:53 | S 13 | 16.09 | Fair | CLR | 29.4 | 22.8 | 68% | 33 | 75.77 | 1009.2 | ||||||
| 03 | 18:53 | S 13 | 16.09 | Fair | CLR | 30.6 | 23.3 | 32.2 | 26.7 | 65% | 35 | 75.77 | 1009.2 | 0.08 | |||
| 03 | 17:53 | S 24 G 35 | 16.09 | Fair | CLR | 31.7 | 22.8 | 59% | 36 | 75.74 | 1008.7 | ||||||
| 03 | 16:53 | S 24 | 16.09 | Fair | CLR | 31.7 | 22.8 | 59% | 36 | 75.77 | 1009.1 | ||||||
| 03 | 15:53 | SE 17 | 16.09 | Fair | CLR | 30 | 23.3 | 67% | 34 | 75.82 | 1009.9 | 0.08 | |||||
| 03 | 14:53 | S 6 | 4.83 | Light Rain | FEW040 SCT085 BKN110 | 26.7 | 20.6 | 69% | 28 | 75.95 | 1011.6 | 0.08 | |||||
| 03 | 13:53 | Calm | 16.09 | A Few Clouds | FEW090 FEW110 | 30.6 | 21.7 | 59% | 34 | 75.97 | 1012.0 | ||||||
| 03 | 12:53 | SW 9 | 16.09 | Fair | CLR | 30 | 20.6 | 30.6 | 22.8 | 57% | 32 | 75.97 | 1012.1 | ||||
| 03 | 11:53 | S 13 | 16.09 | Fair | CLR | 28.3 | 22.2 | 70% | 31 | 75.97 | 1011.9 | ||||||
| 03 | 10:53 | SE 11 | 16.09 | Fair | CLR | 27.2 | 22.8 | 77% | 30 | 76 | 1012.3 | ||||||
| 03 | 09:53 | SE 15 | 16.09 | Fair | CLR | 27.2 | 22.2 | 74% | 30 | 76 | 1012.3 | ||||||
| 03 | 08:53 | E 15 | 16.09 | Fair | CLR | 26.7 | 22.2 | 76% | 29 | 76 | 1012.4 | ||||||
| 03 | 07:53 | SE 11 | 16.09 | Mostly Cloudy | BKN120 | 23.9 | 21.7 | 88% | 24 | 76 | 1012.5 | ||||||
| 03 | 06:53 | NE 11 | 16.09 | Partly Cloudy | SCT120 | 23.3 | 21.1 | 26.1 | 22.8 | 88% | 76 | 1012.5 | |||||
| 03 | 05:53 | SW 7 | 16.09 | NULL | NULL | 25 | 20.6 | 77% | 26 | 75.9 | 1011.0 | ||||||
| 03 | 04:53 | S 9 | 16.09 | Fair | CLR | 25 | 20.6 | 77% | 26 | 75.84 | 1010.5 | ||||||
| 03 | 03:53 | S 13 | 16.09 | Fair | CLR | 24.4 | 20.6 | 79% | 25 | 75.84 | 1010.4 | ||||||
| 03 | 02:53 | S 9 | 16.09 | Fair | CLR | 25 | 21.1 | 79% | 26 | 75.87 | 1010.5 | ||||||
| 03 | 01:53 | SE 7 | 16.09 | Fair | CLR | 23.9 | 21.1 | 84% | 24 | 75.87 | 1010.5 | ||||||
| 03 | 00:53 | S 7 | 16.09 | Fair | CLR | 24.4 | 21.7 | 27.2 | 23.3 | 85% | 25 | 75.87 | 1010.5 | ||||
| 02 | 23:53 | SE 7 | 16.09 | Fair | CLR | 25 | 21.7 | 82% | 26 | 75.87 | 1010.6 | ||||||
| Date | Time (cdt) | Wind (kph) | Vis. (km) | Weather | Sky Cond. | Air | Dwpt | Max. | Min. | Relative Humidity | Wind Chill (°C) | Heat Index (°C) | altimeter (cm) | sea level (mb) | 1 hr | 3 hr | 6 hr |
| 6 hour | |||||||||||||||||
| Temperature (ºC) | Pressure | Precipitation (cm) | |||||||||||||||